Location: Limoges
(45.8354°N, 1.2645°E)
Time: 12:33:20
(UTC+01:00)

Transit 4A - Visible Passes

Search period start: 22 February 2024 00:00
Search period end: 03 March 2024 00:00
Orbit: 869 x 974 km, 66.8° (Epoch: 21 February)

Date Brightness Start Highest point End Pass type
(mag) Time Alt. Az. Time Alt. Az. Time Alt. Az.
22 Feb 10.6 02:51:48 12° NE 02:51:48 12° NE 02:52:10 10° NE visible
22 Feb 9.5 04:35:18 24° N 04:35:18 24° N 04:38:16 10° NNE visible
22 Feb 9.9 06:19:06 10° NW 06:21:15 12° NNW 06:23:23 10° N visible
23 Feb 10.5 03:00:38 14° NE 03:00:38 14° NE 03:01:19 10° NE visible
23 Feb 9.5 04:44:07 22° NNW 04:44:07 22° NNW 04:47:11 10° NNE visible
23 Feb 10.0 06:30:08 10° NNW 06:30:57 10° NNW 06:31:47 10° N visible
24 Feb 10.4 03:09:26 15° NNE 03:09:26 15° NNE 03:10:24 10° NNE visible
24 Feb 9.7 04:52:55 19° NNW 04:52:55 19° NNW 04:56:03 10° NNE visible
25 Feb 10.3 03:18:13 16° NNE 03:18:13 16° NNE 03:19:25 10° NNE visible
25 Feb 9.8 05:01:42 16° NNW 05:01:42 16° NNW 05:04:52 10° N visible
26 Feb 10.2 03:26:58 17° NNE 03:26:58 17° NNE 03:28:23 10° NNE visible
26 Feb 9.9 05:10:27 13° NNW 05:10:52 13° NNW 05:13:38 10° N visible
27 Feb 10.1 03:35:42 17° N 03:35:42 17° N 03:37:18 10° NNE visible
27 Feb 10.0 05:19:11 10° NNW 05:20:32 11° NNW 05:22:18 10° N visible
27 Feb 10.2 07:09:20 10° N 07:09:58 10° NNE 07:10:37 10° NNE visible
28 Feb 10.1 03:44:25 17° N 03:44:25 17° N 03:46:12 10° NNE visible
29 Feb 10.1 03:53:07 16° N 03:53:07 16° N 03:55:02 10° NNE visible
01 Mar 10.7 02:18:20 11° NNE 02:18:20 11° NNE 02:18:28 10° NNE visible
01 Mar 10.1 04:01:48 14° NNW 04:01:48 14° NNW 04:03:51 10° N visible
02 Mar 10.6 02:27:00 12° NNE 02:27:00 12° NNE 02:27:25 10° NNE visible
02 Mar 10.2 04:10:29 12° NNW 04:10:29 12° NNW 04:12:35 10° N visible
